P/2019 A6 ( Lemmon-PanSTARRS )

Japanese version
Home page
Updated on January 18, 2019

---------------------------------------------------------------------

* Profile

Discovery Date December 14, 2018 and January 7, 2019
Magnitude 20.4 mag, 20.7 mag
Discoverer Mt. Lemmon Survey, Pan-STARRS 1 telescope (Haleakala)

* Orbital Elements

Epoch 2018 Aug. 30.0 TT = JDT 2458360.5
T 2018 Aug. 29.32543 TT                                 MPCW
q   1.9381028            (2000.0)            P               Q
n   0.07911295     Peri.  156.30017     +0.16770066     -0.82537706
a   5.3740827      Node   280.26486     +0.79403836     +0.43718699
e   0.6393612      Incl.   33.22096     +0.58427697     -0.35723975
P  12.46
From 49 observations 2018 Dec. 14-2019 Jan. 17, mean residual 0".4.

* Magnitudes Graph

        m1 = 15.5 + 5 log d + 10.0 log r

---------------------------------------------------------------------

The orbital elements are published on M.P.E.C. 2019-B46.
The magnitudes graphs are made with Comet for Windows.

---------------------------------------------------------------------

Copyright(C) Seiichi Yoshida (comet@aerith.net). All rights reserved.